EW9200 Weather Reports


time (UTC)temp
F
wind
direction
speed
knots
gust
knots
rain 1hr
in
rain 24hr
in
rain mn
in
humidity
%
barometer
mb
20260504035529 56 201 0.9 4.3 0.00 0.08 0.08 75 1005.9
20260504035029 56 120 1.7 4.3 0.00 0.08 0.08 75 1006.0
20260504034536 56 0 0.9 4.3 0.00 0.08 0.08 74 1006.2
20260504034029 56 252 0.9 4.3 0.00 0.08 0.08 74 1006.2
20260504033529 56 200 0.9 3.5 0.00 0.08 0.08 74 1006.2
20260504033044 56 151 0.9 3.5 0.00 0.08 0.08 74 1006.2
20260504032530 56 227 0.9 2.6 0.00 0.08 0.08 74 1006.2
20260504032029 56 186 0.9 2.6 0.00 0.08 0.08 74 1006.4
20260504031544 56 221 0.9 2.6 0.00 0.08 0.08 74 1006.5
20260504031029 56 213 0.9 2.6 0.00 0.08 0.08 74 1006.3
20260504030528 56 167 0.9 1.7 0.00 0.08 0.08 74 1006.5
20260504030042 56 138 0.0 1.7 0.00 0.08 0.08 73 1006.6
20260504025528 56 148 0.9 3.5 0.00 0.08 0.08 73 1006.6
20260504025026 56 129 0.0 3.5 0.00 0.08 0.08 73 1006.6
20260504024538 56 0 0.0 1.7 0.00 0.08 0.08 72 1006.5
20260504024028 57 0 0.0 0.9 0.00 0.08 0.08 72 1006.5
20260504023529 57 0 0.0 1.7 0.00 0.08 0.08 71 1006.5
20260504023038 57 196 0.0 1.7 0.00 0.08 0.08 71 1006.4
20260504022529 57 0 0.0 0.9 0.00 0.08 0.08 70 1006.2
20260504022032 58 0 0.0 0.9 0.00 0.08 0.08 69 1006.2
20260504021547 58 0 0.0 1.7 0.00 0.08 0.08 68 1006.2
20260504021028 59 234 0.0 1.7 0.00 0.08 0.08 67 1006.2
20260504020528 59 230 0.0 1.7 0.00 0.08 0.08 66 1006.1
20260504020042 60 169 0.0 5.2 0.00 0.08 0.08 65 1006.1
20260504015530 60 168 0.0 5.2 0.00 0.08 0.08 65 1006.0
20260504015029 60 143 1.7 5.2 0.00 0.08 0.08 64 1006.1
20260504014545 61 185 0.9 5.2 0.00 0.08 0.08 64 1006.0
20260504014026 61 181 1.7 5.2 0.00 0.08 0.08 63 1005.9
20260504013526 61 162 0.9 4.3 0.00 0.08 0.08 63 1005.8
20260504013051 61 217 0.9 4.3 0.00 0.08 0.08 63 1005.8
20260504012531 61 201 1.7 4.3 0.00 0.08 0.08 62 1006.0
20260504012025 62 266 0.9 4.3 0.00 0.08 0.08 62 1005.9
20260504011545 62 219 1.7 4.3 0.00 0.08 0.08 61 1005.9
20260504011028 62 226 0.9 4.3 0.00 0.08 0.08 61 1005.9
20260504010529 62 195 1.7 4.3 0.00 0.08 0.08 60 1005.9
20260504010051 63 219 0.9 4.3 0.00 0.08 0.08 60 1005.9
20260504005529 63 163 0.9 3.5 0.00 0.08 0.08 59 1005.9
20260504005029 63 234 0.9 2.6 0.00 0.08 0.08 59 1005.8
20260504004545 64 221 0.9 5.2 0.00 0.08 0.08 58 1005.7
20260504004030 64 169 0.9 6.1 0.00 0.08 0.08 57 1005.8
20260504003528 65 123 0.9 6.1 0.00 0.08 0.08 56 1005.8
20260504003042 65 169 1.7 7.0 0.00 0.08 0.08 55 1005.8
20260504002528 65 176 1.7 7.8 0.00 0.08 0.08 55 1005.8
20260504002026 65 65 1.7 7.8 0.00 0.08 0.08 55 1005.9
20260504001540 66 204 2.6 7.8 0.00 0.08 0.08 55 1005.9
20260504001026 66 143 2.6 8.7 0.00 0.08 0.08 55 1005.9
20260504000527 66 187 1.7 8.7 0.00 0.08 0.08 55 1005.8
20260504000044 66 269 2.6 8.7 0.00 0.08 0.08 54 1005.9
20260503235530 67 250 3.5 8.7 0.00 0.08 0.08 53 1005.9
20260503235026 67 204 2.6 8.7 0.00 0.08 0.08 53 1006.0
20260503234536 67 218 2.6 10.4 0.00 0.08 0.08 52 1006.0
20260503234029 67 215 3.5 10.4 0.00 0.08 0.08 51 1005.9
20260503233529 67 216 3.5 10.4 0.00 0.08 0.08 52 1005.9
20260503233046 67 316 2.6 10.4 0.00 0.08 0.08 51 1005.9
20260503232529 67 261 4.3 10.4 0.00 0.08 0.08 51 1005.9
20260503232030 67 239 3.5 10.4 0.00 0.08 0.08 51 1005.9
20260503231549 68 218 3.5 11.3 0.00 0.08 0.08 51 1005.7
20260503231031 68 279 3.5 11.3 0.00 0.08 0.08 50 1005.9
20260503230531 68 263 4.3 13.0 0.00 0.08 0.08 50 1006.1
20260503230043 68 250 3.5 13.0 0.00 0.08 0.08 50 1006.1
20260503225529 68 179 3.5 13.0 0.00 0.08 0.08 50 1006.2
20260503225031 68 307 4.3 14.8 0.00 0.08 0.08 50 1006.2
20260503224538 68 116 5.2 14.8 0.00 0.08 0.08 49 1006.2
20260503224030 68 192 2.6 12.2 0.00 0.08 0.08 51 1006.2
20260503223533 68 17 3.5 12.2 0.00 0.08 0.08 48 1006.3
20260503223039 69 223 3.5 13.0 0.00 0.08 0.08 49 1006.3
20260503222530 69 179 4.3 13.0 0.00 0.08 0.08 48 1006.5
20260503222030 69 167 4.3 13.9 0.00 0.08 0.08 50 1006.4
20260503221537 68 220 4.3 13.9 0.00 0.08 0.08 50 1006.4
20260503221031 68 122 5.2 13.0 0.00 0.08 0.08 50 1006.7
20260503220531 68 187 3.5 7.8 0.00 0.08 0.08 49 1006.6
20260503220047 67 114 2.6 7.8 0.00 0.08 0.08 50 1006.6
20260503215531 66 169 2.6 10.4 0.00 0.08 0.08 50 1006.6
20260503215030 66 258 3.5 10.4 0.00 0.08 0.08 50 1006.6
20260503214543 67 301 4.3 11.3 0.00 0.08 0.08 49 1006.8
20260503214030 67 167 4.3 11.3 0.00 0.08 0.08 49 1006.8
20260503213530 66 233 3.5 11.3 0.00 0.08 0.08 50 1006.9
20260503213043 66 235 4.3 9.6 0.00 0.08 0.08 51 1007.0
20260503212530 66 195 4.3 9.6 0.00 0.08 0.08 51 1006.9
20260503212030 66 168 3.5 10.4 0.00 0.08 0.08 52 1006.9
20260503211539 66 136 5.2 10.4 0.00 0.08 0.08 52 1007.2
20260503211030 65 214 4.3 9.6 0.00 0.08 0.08 53 1007.3
20260503210531 65 246 4.3 12.2 0.00 0.08 0.08 52 1007.4
20260503210043 65 229 3.5 12.2 0.00 0.08 0.08 51 1007.5
20260503205532 65 158 5.2 15.6 0.00 0.08 0.08 50 1007.7
20260503205031 65 171 4.3 15.6 0.00 0.08 0.08 51 1007.7
20260503204542 65 187 5.2 13.0 0.00 0.08 0.08 51 1007.9
20260503204027 64 255 5.2 13.0 0.00 0.08 0.08 52 1008.0
20260503203530 64 192 5.2 13.0 0.00 0.08 0.08 50 1008.1
20260503203049 65 206 5.2 13.0 0.00 0.08 0.08 50 1008.2
20260503202529 65 211 5.2 13.0 0.00 0.08 0.08 49 1008.3
20260503202029 65 271 6.1 12.2 0.00 0.08 0.08 49 1008.3
20260503201544 64 136 4.3 14.8 0.00 0.08 0.08 48 1008.3
20260503201028 65 197 3.5 14.8 0.00 0.08 0.08 51 1008.5
20260503200528 65 169 5.2 14.8 0.00 0.08 0.08 48 1008.5
20260503200040 66 210 4.3 14.8 0.00 0.08 0.08 49 1008.5
20260503195528 66 152 6.1 14.8 0.00 0.08 0.08 47 1008.5
20260503195028 66 179 6.1 14.8 0.00 0.08 0.08 49 1008.6
20260503194545 66 238 6.1 13.0 0.00 0.08 0.08 50 1008.8
20260503194028 64 215 4.3 19.1 0.00 0.08 0.08 52 1008.8
20260503193529 64 33 5.2 19.1 0.00 0.08 0.08 52 1008.7
20260503193045 64 253 7.8 16.5 0.00 0.08 0.08 51 1008.9
20260503192527 65 207 8.7 16.5 0.00 0.08 0.08 50 1008.9
20260503192028 65 138 7.8 18.2 0.00 0.08 0.08 52 1008.7
20260503191543 64 170 7.8 18.2 0.00 0.08 0.08 53 1009.0
20260503191028 64 172 7.8 18.2 0.00 0.08 0.08 54 1008.9
20260503190527 63 256 6.1 21.7 0.00 0.08 0.08 58 1009.1
20260503190045 63 226 7.8 21.7 0.00 0.08 0.08 57 1009.2
20260503185529 63 167 6.1 13.0 0.00 0.08 0.08 61 1009.4
20260503185030 62 167 7.0 13.0 0.00 0.08 0.08 60 1009.3
20260503184545 62 156 4.3 19.1 0.00 0.08 0.08 64 1009.4
20260503184029 61 130 7.8 19.1 0.00 0.08 0.08 64 1009.7
20260503183528 61 208 5.2 12.2 0.00 0.08 0.08 67 1009.7
20260503183036 60 128 7.0 15.6 0.00 0.08 0.08 66 1009.9
20260503182527 59 150 6.1 15.6 0.00 0.08 0.08 68 1009.9
20260503182027 59 141 5.2 13.9 0.00 0.08 0.08 69 1010.1
20260503181543 58 162 4.3 10.4 0.00 0.08 0.08 74 1010.3
20260503181028 57 137 4.3 9.6 0.00 0.08 0.08 78 1010.3
20260503180529 56 164 5.2 10.4 0.00 0.08 0.08 78 1010.6
20260503180054 55 192 4.3 10.4 0.00 0.08 0.08 80 1010.7
20260503175528 54 172 4.3 10.4 0.00 0.08 0.08 82 1010.9
20260503175026 52 185 3.5 7.0 0.00 0.08 0.08 83 1011.0
20260503174546 51 162 3.5 6.1 0.00 0.08 0.08 85 1011.2
20260503174028 50 160 2.6 7.0 0.00 0.08 0.08 85 1011.4
20260503173526 50 186 2.6 7.0 0.00 0.08 0.08 85 1011.5
20260503173047 50 150 2.6 6.1 0.01 0.08 0.08 85 1011.6
20260503172525 49 197 1.7 7.8 0.01 0.08 0.08 86 1011.9
20260503172028 49 127 2.6 7.8 0.01 0.08 0.08 86 1012.1
20260503171537 49 175 2.6 7.8 0.01 0.08 0.08 86 1012.7
20260503171026 49 211 1.7 4.3 0.01 0.08 0.08 86 1012.6
20260503170530 49 169 2.6 3.5 0.01 0.08 0.08 86 1012.8
20260503150530 51 189 2.6 9.6 0.00 0.00 0.00 71 1014.4
20260503131027 50 240 3.5 7.8 0.00 0.00 0.00 68 1014.4
20260503130527 50 206 3.5 8.7 0.00 0.00 0.00 67 1014.6
20260503110530 44 225 0.9 4.3 0.00 0.00 0.00 72 1014.3
20260503081544 43 0 0.0 1.7 0.00 0.00 0.00 71 1015.0
20260503081030 43 208 0.0 1.7 0.00 0.00 0.00 71 1015.0
20260503080530 43 210 0.0 1.7 0.00 0.00 0.00 70 1015.1
20260503072551 44 183 0.9 2.6 0.00 0.00 0.00 69 1014.9
20260503072029 43 141 0.9 3.5 0.00 0.00 0.00 68 1014.8
20260503071536 43 233 0.9 3.5 0.00 0.00 0.00 69 1015.0
20260503071028 43 221 0.9 2.6 0.00 0.00 0.00 69 1014.9
20260503070532 43 139 0.9 2.6 0.00 0.00 0.00 68 1015.1
20260503060107 44 204 0.9 2.6 0.00 0.00 0.00 66 1015.7
20260503055028 43 163 0.0 2.6 0.00 0.00 0.00 66 1015.7
20260503054543 43 220 0.0 1.7 0.00 0.00 0.00 67 1015.7
20260503054030 43 217 0.0 1.7 0.00 0.00 0.00 67 1015.8
20260503053529 43 0 0.0 2.6 0.00 0.00 0.00 67 1015.8
20260503053042 43 150 0.0 2.6 0.00 0.00 0.00 67 1015.9
20260503052527 43 167 0.0 2.6 0.00 0.00 0.00 67 1015.9
20260503052032 43 190 0.0 0.9 0.00 0.00 0.00 67 1015.8
20260503051543 44 164 0.0 0.9 0.00 0.00 0.00 67 1016.0
20260503051032 44 224 0.0 1.7 0.00 0.00 0.00 67 1016.0
20260503050529 44 131 0.0 1.7 0.00 0.00 0.00 67 1015.8
20260503050043 44 0 0.0 1.7 0.00 0.00 0.00 67 1016.0
20260503045529 44 160 0.0 1.7 0.00 0.00 0.00 67 1016.0
20260503045028 44 0 0.0 1.7 0.00 0.00 0.00 67 1016.1
20260503044538 44 200 0.0 1.7 0.00 0.00 0.00 67 1016.1
20260503044029 44 0 0.0 0.9 0.00 0.00 0.00 66 1016.1
20260503043526 44 0 0.0 1.7 0.00 0.00 0.00 66 1016.1
20260503043050 45 203 0.0 3.5 0.00 0.00 0.00 65 1016.1
20260503042530 45 243 0.0 3.5 0.00 0.00 0.00 65 1016.1
20260503042030 45 0 0.0 1.7 0.00 0.00 0.00 65 1016.1
20260503041543 45 165 0.0 0.9 0.00 0.00 0.00 65 1016.1
20260503041029 45 0 0.0 0.9 0.00 0.00 0.00 65 1016.1
20260503040529 45 224 0.0 0.9 0.00 0.00 0.00 65 1016.1
20260503040055 45 214 0.0 1.7 0.00 0.00 0.00 65 1016.2